{"data":{"norad_id":57665,"epoch":"2026-05-24T21:47:10.611744Z","epoch_age_seconds":76248,"freshness":"FRESH","line1":"1 57665U 23124C   26144.90776171 -.00000168  00000+0  64551-5 0  9997","line2":"2 57665  53.1605 213.0398 0001094  96.2708 263.8417 15.30186484155230","mean_motion":15.30186484,"eccentricity":0.0001094,"inclination_deg":53.1605,"raan_deg":213.0398,"arg_perigee_deg":96.2708,"mean_anomaly_deg":263.8417,"bstar":6.4551e-6,"rev_number":15523,"period_min":94.106176930524,"perigee_km":474.50566492469,"apogee_km":476.00518718751,"semimajor_km":6853.3924260561,"source":"CELESTRAK","updated_at":"2026-05-25T13:38:18.366951Z"}}